Killeen/Ft Hood, TX

3:06 AM CDT on July 21, 2017 (GMT -0500)
Hood Army Air Field

Weather History for KHLR - September, 2013

Change the Weather History Date:

Tuesday, September 24, 2013

  Actual Average Record
Temperature  
Mean Temperature 80 °F -  
Max Temperature 95 °F 85 °F 99 °F (2011)
Min Temperature 66 °F 64 °F 57 °F (2011)
Cooling Degree Days 16    
Growing Degree Days 30 (Base 50)    
Moisture  
Dew Point 59 °F    
Average Humidity 51    
Maximum Humidity 81    
Minimum Humidity 28    
Precipitation  
Precipitation 0.00 in - - ()
Sea Level Pressure  
Sea Level Pressure 29.96 in    
Wind  
Wind Speed 1 mph (North)    
Max Wind Speed 7 mph    
Max Gust Speed -    
Visibility 10 miles    
Events      
Averages and records for this station are not official NWS values.
T = Trace of Precipitation, MM = Missing Value Source: NWS Daily Summary

Daily Weather History Graph

Daily Weather History Graph

Search for Another Location

Airport or City:

Trip Planner

Search our weather history database for the weather conditions in past years. The results will help you decide how hot, cold, wet, or windy it might be!

Date:

Astronomy

Sep. 24, 2013 Rise Set
Actual Time 7:20 AM CDT 7:24 PM CDT
Civil Twilight 6:56 AM CDT 7:48 PM CDT
Nautical Twilight 6:28 AM CDT 8:16 PM CDT
Astronomical Twilight 5:59 AM CDT 8:45 PM CDT
Moon 11:02 PM CDT (9/24) 12:16 PM CDT (9/24)
Length of Visible Light 12h 52m
Length of Day
12h 04m
Waning Gibbous, 73% of the Moon is Illuminated
Sep 24
Waning Gibbous
Sep 26
Last Quarter
Oct 4
New
Oct 11
First Quarter
Oct 18
Full

Hourly Weather History & Observations

Time (CDT) Temp. Heat Index Dew Point Humidity Pressure Visibility Wind Dir Wind Speed Gust Speed Precip Events Conditions
12:56 AM 71.1 °F - 57.9 °F 63% 29.91 in 10.0 mi Calm Calm - N/A   Clear
1:56 AM 70.0 °F - 59.0 °F 68% 29.92 in 10.0 mi Calm Calm - N/A   Clear
2:56 AM 69.1 °F - 61.0 °F 75% 29.93 in 10.0 mi Calm Calm - N/A   Clear
3:56 AM 68.0 °F - 61.0 °F 78% 29.93 in 10.0 mi Calm Calm - N/A   Clear
4:56 AM 66.0 °F - 60.1 °F 81% 29.95 in 10.0 mi North 3.5 mph - N/A   Clear
5:56 AM 68.0 °F - 57.9 °F 70% 29.96 in 10.0 mi Calm Calm - N/A   Clear
6:56 AM 66.0 °F - 57.9 °F 75% 29.97 in 10.0 mi Calm Calm - N/A   Clear
7:56 AM 70.0 °F - 59.0 °F 68% 29.98 in 10.0 mi Calm Calm - N/A   Clear
8:56 AM 75.0 °F - 61.0 °F 62% 29.99 in 10.0 mi Calm Calm - N/A   Clear
9:56 AM 81.0 °F 81.7 °F 61.0 °F 50% 30.01 in 10.0 mi Calm Calm - N/A   Clear
10:56 AM 87.1 °F 87.0 °F 61.0 °F 41% 30.01 in 10.0 mi NW 3.5 mph - N/A   Clear
11:56 AM 90.0 °F 89.1 °F 59.0 °F 35% 30.01 in 10.0 mi WNW 6.9 mph - N/A   Clear
12:56 PM 91.0 °F 90.0 °F 57.9 °F 33% 29.99 in 10.0 mi Calm Calm - N/A   Clear
1:56 PM 93.9 °F 92.2 °F 55.9 °F 28% 29.97 in 10.0 mi Variable 3.5 mph - N/A   Clear
2:56 PM 95.0 °F 93.7 °F 57.0 °F 28% 29.95 in 10.0 mi Variable 3.5 mph - N/A   Clear
3:56 PM 95.0 °F 93.7 °F 57.0 °F 28% 29.94 in 10.0 mi Variable 3.5 mph - N/A   Clear
4:56 PM 93.9 °F 92.6 °F 57.0 °F 29% 29.93 in 10.0 mi NNE 6.9 mph - N/A   Clear
5:56 PM 93.0 °F 91.4 °F 55.9 °F 29% 29.93 in 10.0 mi North 4.6 mph - N/A   Clear
6:56 PM 91.0 °F 90.0 °F 57.9 °F 33% 29.93 in 10.0 mi Calm Calm - N/A   Clear
7:56 PM 84.0 °F 84.0 °F 60.1 °F 44% 29.93 in 10.0 mi Calm Calm - N/A   Clear
8:56 PM 81.0 °F 81.3 °F 59.0 °F 47% 29.95 in 10.0 mi NNE 4.6 mph - N/A   Clear
9:56 PM 80.1 °F 80.7 °F 59.0 °F 48% 29.96 in 10.0 mi North 3.5 mph - N/A   Clear
10:56 PM 80.1 °F 80.6 °F 57.9 °F 47% 29.96 in 10.0 mi North 3.5 mph - N/A   Clear
11:56 PM 75.9 °F - 59.0 °F 56% 29.97 in 10.0 mi Calm Calm - N/A   Clear